This is the latest recevied weather packets stored in our database for station/object WX9WTF. If no packets are shown the sender has not sent any weather packets the latest 10 day(s).
| Time | Temp. | Humidity | Pressure | Rain* | Wind** | Luminosity | Snow |
|---|---|---|---|---|---|---|---|
| 1777737946 | 14.44° C | 49% | 1022.8 hPa | 0 mm | - | 767 W/m² | - |
| 1777737644 | 13.89° C | 48% | 1022.6 hPa | 0 mm | - | 756 W/m² | - |
| 1777737343 | 13.89° C | 43% | 1022.7 hPa | 0 mm | - | 748 W/m² | - |
| 1777737039 | 13.33° C | 42% | 1022.5 hPa | 0 mm | - | 733 W/m² | - |
| 1777736735 | 13.33° C | 43% | 1022.7 hPa | 0 mm | - | 724 W/m² | - |
| 1777736107 | 13.89° C | 46% | 1022.7 hPa | 0 mm | - | 497 W/m² | - |
| 1777735804 | 13.33° C | 47% | 1022.6 hPa | 0 mm | - | 703 W/m² | - |
| 1777735501 | 13.33° C | 47% | 1022.6 hPa | 0 mm | - | 684 W/m² | - |
| 1777735199 | 13.33° C | 49% | 1022.7 hPa | 0 mm | - | 659 W/m² | - |
| 1777734896 | 13.33° C | 49% | 1022.6 hPa | 0 mm | - | 664 W/m² | - |
| 1777734593 | 13.89° C | 50% | 1022.6 hPa | 0 mm | - | 642 W/m² | - |
| 1777734290 | 13.33° C | 52% | 1022.8 hPa | 0 mm | - | 631 W/m² | - |
| 1777733986 | 12.78° C | 57% | 1022.6 hPa | 0 mm | - | 617 W/m² | - |
| 1777733683 | 12.78° C | 55% | 1022.5 hPa | 0 mm | - | 602 W/m² | - |
| 1777733379 | 12.78° C | 53% | 1022.5 hPa | 0 mm | - | 586 W/m² | - |
| 1777733076 | 12.78° C | 54% | 1022.4 hPa | 0 mm | - | 572 W/m² | - |
| 1777732772 | 12.22° C | 56% | 1022.5 hPa | 0 mm | - | 556 W/m² | - |
| 1777732470 | 12.22° C | 57% | 1022.4 hPa | 0 mm | - | 538 W/m² | - |
| 1777732167 | 11.67° C | 60% | 1022.5 hPa | 0 mm | - | 520 W/m² | - |
| 1777731864 | 12.22° C | 58% | 1022.4 hPa | 0 mm | - | 504 W/m² | - |
| 1777731561 | 12.22° C | 59% | 1022.5 hPa | 0 mm | - | 486 W/m² | - |
| 1777731258 | 11.67° C | 59% | 1022.4 hPa | 0 mm | - | 469 W/m² | - |
| 1777730956 | 11.67° C | 61% | 1022.4 hPa | 0 mm | - | 450 W/m² | - |
| 1777730655 | 11.11° C | 61% | 1022.4 hPa | 0 mm | - | 431 W/m² | - |
| 1777730350 | 11.11° C | 61% | 1022.6 hPa | 0 mm | - | 411 W/m² | - |
* Rain latest hour (hover to see other rain measurements)
** Current wind speed in m/s (hover to see current wind gust speed)